Weather reports worldwide

Advertisment
Gioia Del Colle, Italy (16312): temperature & dewpoint: 11.08.2018 01:00:00 - 17.08.2018 01:00:00 (CEST)Gioia Del Colle, Italy (16312): wind speed: 11.08.2018 01:00:00 - 17.08.2018 01:00:00 (CEST)Gioia Del Colle, Italy (16312): wind direction: 11.08.2018 01:00:00 - 17.08.2018 01:00:00 (CEST)Gioia Del Colle, Italy (16312): reduced air pressure: 11.08.2018 01:00:00 - 17.08.2018 01:00:00 (CEST)Gioia Del Colle, Italy (16312): visibility: 11.08.2018 01:00:00 - 17.08.2018 01:00:00 (CEST)
Date & Time tt [°C] td [°C] ff [km/h] ff [kn] dd ppp [hPa] vv [km]
17.08.2018 01:00:00 20,0 20,0 9 5 NW - 10
17.08.2018 00:00:00 20,0 20,0 8 4 WNW - 10
16.08.2018 23:00:00 20,0 19,7 11 6 NW 1013,0 10
16.08.2018 22:00:00 20,0 20,0 5 3 N - 10
16.08.2018 21:00:00 20,0 20,0 4 2 NNW - 10
16.08.2018 20:00:00 21,0 18,8 5 3 NW 1012,7 10
16.08.2018 19:00:00 22,0 20,0 5 3 NNW - 9
16.08.2018 18:00:00 22,0 20,0 8 4 WNW - 9
16.08.2018 17:00:00 20,2 19,0 9 5 W 1012,8 7
16.08.2018 16:00:00 19,0 19,0 15 8 SSW - 6
16.08.2018 15:00:00 19,0 18,0 31 17 SSE - 5
16.08.2018 14:00:00 26,8 20,4 24 13 N 1012,3 10
16.08.2018 13:00:00 26,0 20,0 21 11 N - 10
16.08.2018 12:00:00 26,0 21,0 16 9 N - 10
16.08.2018 11:00:00 24,6 21,5 13 7 N 1011,8 10
16.08.2018 10:00:00 24,0 22,0 16 9 N - 10
16.08.2018 09:00:00 23,0 22,0 13 7 NNW - 10
16.08.2018 08:00:00 21,4 21,4 9 5 NNW 1011,6 8
16.08.2018 07:00:00 19,0 19,0 5 3 NW - 7
16.08.2018 06:00:00 18,0 18,0 4 2 NNW - 5
16.08.2018 05:00:00 18,0 18,0 4 2 NNE 1011,7 6
16.08.2018 04:00:00 18,0 18,0 0 0 - - 7
16.08.2018 03:00:00 18,0 18,0 5 3 NNW - 7
16.08.2018 02:00:00 18,8 18,8 5 3 NNW 1012,2 7
16.08.2018 01:00:00 19,0 19,0 4 2 W - 7
16.08.2018 00:00:00 19,0 19,0 2 1 - - 7
15.08.2018 23:00:00 19,4 19,4 8 4 WNW 1012,2 7
15.08.2018 22:00:00 20,0 20,0 4 2 NNW - 7
15.08.2018 21:00:00 20,0 20,0 8 4 WNW - 6
15.08.2018 20:00:00 20,8 20,8 13 7 NNW 1010,8 6
15.08.2018 19:00:00 21,0 21,0 15 8 N - 6
15.08.2018 18:00:00 21,0 21,0 15 8 N - 7
15.08.2018 17:00:00 21,0 21,0 11 6 N 1010,7 7
15.08.2018 16:00:00 20,0 20,0 8 4 NNW - 6
15.08.2018 15:00:00 20,0 20,0 15 8 NNE - 6
15.08.2018 14:00:00 20,0 20,0 15 8 WNW 1010,3 5
15.08.2018 13:00:00 25,0 20,0 24 13 N - 5
15.08.2018 12:00:00 27,0 18,0 15 8 NNE - 10
15.08.2018 11:00:00 26,4 17,7 5 3 N 1009,8 10
15.08.2018 10:00:00 25,0 21,0 8 4 N - 10
15.08.2018 09:00:00 23,0 22,0 9 5 NW - 10
15.08.2018 08:00:00 23,0 22,2 11 6 NNW 1011,3 10
15.08.2018 07:00:00 20,0 20,0 8 4 NNW - 10
15.08.2018 06:00:00 18,0 18,0 4 2 N - 10
15.08.2018 05:00:00 18,0 16,7 4 2 N 1011,8 10
15.08.2018 04:00:00 20,0 17,0 4 2 NNW - 10
15.08.2018 03:00:00 20,0 17,0 8 4 WNW - 10
15.08.2018 02:00:00 20,8 17,2 4 2 WNW 1011,3 10
15.08.2018 01:00:00 21,0 17,0 5 3 WNW - 10
15.08.2018 00:00:00 21,0 17,0 5 3 NNW - 10
14.08.2018 23:00:00 21,0 18,9 11 6 NNW 1011,3 10
14.08.2018 22:00:00 22,0 19,0 13 7 NNW - 10
14.08.2018 21:00:00 23,0 19,0 24 13 NW - 10
14.08.2018 20:00:00 24,4 16,1 13 7 NW 1009,9 10
14.08.2018 19:00:00 28,0 13,0 11 6 S - 10
14.08.2018 18:00:00 30,0 11,0 26 14 S - 10
14.08.2018 17:00:00 31,8 9,9 24 13 S 1008,5 10
14.08.2018 16:00:00 33,0 10,0 22 12 S - 10
14.08.2018 15:00:00 34,0 8,0 15 8 S - 10
14.08.2018 14:00:00 34,0 7,9 16 9 WSW 1009,3 12
14.08.2018 13:00:00 33,0 8,0 18 10 SSW - 10
14.08.2018 12:00:00 32,0 8,0 8 4 SSW - 10
14.08.2018 11:00:00 30,2 9,7 5 3 N 1010,8 12
14.08.2018 10:00:00 29,0 10,0 4 2 - - 10
14.08.2018 09:00:00 27,0 12,0 4 2 - - 10
14.08.2018 08:00:00 24,6 14,4 4 2 W 1011,7 10
14.08.2018 07:00:00 22,0 16,0 5 3 N - 10
14.08.2018 06:00:00 22,0 14,0 4 2 - - 10
14.08.2018 05:00:00 21,6 15,4 4 2 N 1011,6 10
14.08.2018 04:00:00 21,0 19,0 2 1 W - 10
14.08.2018 03:00:00 22,0 22,0 2 1 - - 8
14.08.2018 02:00:00 23,8 23,0 4 2 S 1011,7 8
14.08.2018 01:00:00 24,0 23,0 5 3 WSW - 8
14.08.2018 00:00:00 24,0 23,0 5 3 SSW - 8
13.08.2018 23:00:00 24,4 22,8 8 4 S 1011,6 8
13.08.2018 22:00:00 24,0 23,0 8 4 S - 8
13.08.2018 21:00:00 25,0 23,0 15 8 SSE - 8
13.08.2018 20:00:00 27,0 22,6 18 10 S 1011,0 10
13.08.2018 19:00:00 27,0 19,0 16 9 S - 10
13.08.2018 18:00:00 27,0 14,0 18 10 SSE - 10
13.08.2018 17:00:00 29,0 18,2 9 5 S 1011,2 10
13.08.2018 16:00:00 32,0 14,0 18 10 SSE - 10
13.08.2018 15:00:00 33,0 13,0 18 10 S - 10
13.08.2018 14:00:00 33,2 13,3 16 9 S 1011,5 10
13.08.2018 13:00:00 33,0 13,0 18 10 S - 10
13.08.2018 12:00:00 33,0 18,0 16 9 S - 10
13.08.2018 11:00:00 30,4 15,3 5 3 N 1013,1 10
13.08.2018 10:00:00 28,0 17,0 4 2 WNW - 10
13.08.2018 09:00:00 28,0 20,0 8 4 NNW - 10
13.08.2018 08:00:00 24,2 18,2 4 2 N 1014,0 10
13.08.2018 07:00:00 21,0 19,0 2 1 - - 10
13.08.2018 06:00:00 21,0 19,0 8 4 N - 10
13.08.2018 05:00:00 21,0 18,6 4 2 N 1014,1 10
13.08.2018 04:00:00 21,0 18,0 0 0 N - 10
13.08.2018 03:00:00 21,0 19,0 2 1 - - 10
13.08.2018 02:00:00 21,8 19,2 0 0 N 1015,0 10
13.08.2018 01:00:00 23,0 20,0 4 2 - - 10
13.08.2018 00:00:00 23,0 19,0 2 1 - - 10
12.08.2018 23:00:00 24,4 17,7 4 2 N 1015,1 10
12.08.2018 22:00:00 25,0 18,0 2 1 - - 10
12.08.2018 21:00:00 27,0 16,0 0 0 N - 10
12.08.2018 20:00:00 28,6 12,5 5 3 E 1013,8 10
12.08.2018 19:00:00 29,0 11,0 13 7 NE - 10
12.08.2018 18:00:00 30,0 13,0 16 9 NNE - 10
12.08.2018 17:00:00 31,0 15,0 13 7 NNE 1014,3 10
12.08.2018 16:00:00 31,0 17,0 13 7 NNE - 10
12.08.2018 15:00:00 31,0 15,0 16 9 N - 10
12.08.2018 14:00:00 31,2 13,9 8 4 N 1015,3 10
12.08.2018 13:00:00 31,0 15,0 9 5 - - 10
12.08.2018 12:00:00 30,0 16,0 13 7 NNE - 10
12.08.2018 11:00:00 30,0 14,9 13 7 N 1015,9 10
12.08.2018 10:00:00 29,0 16,0 15 8 N - 10
12.08.2018 09:00:00 27,0 18,0 11 6 N - 10
12.08.2018 08:00:00 23,0 18,3 5 3 NNW 1015,6 10
12.08.2018 07:00:00 20,0 18,0 8 4 NE - 10
12.08.2018 06:00:00 20,0 18,0 4 2 - - 10
12.08.2018 05:00:00 20,0 18,1 5 3 NNW 1015,7 10
12.08.2018 04:00:00 21,0 19,0 4 2 N - 10
12.08.2018 03:00:00 21,0 19,0 2 1 - - 10
12.08.2018 02:00:00 21,2 18,6 4 2 NNE 1016,3 10
12.08.2018 01:00:00 22,0 18,0 4 2 NW - 10
12.08.2018 00:00:00 23,0 20,0 5 3 WNW - 10
11.08.2018 23:00:00 24,0 20,3 5 3 WNW 1016,0 10
11.08.2018 22:00:00 26,0 20,0 5 3 N - 10
11.08.2018 21:00:00 26,0 19,0 8 4 N - 10
11.08.2018 20:00:00 27,2 16,8 13 7 N 1015,4 10
11.08.2018 19:00:00 29,0 14,0 13 7 NNE - 10
11.08.2018 18:00:00 31,0 14,0 16 9 N - 10
11.08.2018 17:00:00 31,2 13,5 16 9 N 1014,8 10
11.08.2018 16:00:00 32,0 13,0 16 9 N - 10
11.08.2018 15:00:00 32,0 14,0 18 10 N - 10
11.08.2018 14:00:00 32,0 14,6 16 9 N 1015,4 10
11.08.2018 13:00:00 31,0 15,0 16 9 N - 10
11.08.2018 12:00:00 31,0 16,0 16 9 N - 10
11.08.2018 11:00:00 30,0 17,5 16 9 N 1016,4 10
11.08.2018 10:00:00 29,0 17,0 13 7 N - 10
11.08.2018 09:00:00 28,0 18,0 9 5 NNW - 10
11.08.2018 08:00:00 25,0 21,3 5 3 NW 1016,9 9
11.08.2018 07:00:00 22,0 21,0 4 2 WNW - 8
11.08.2018 06:00:00 21,0 20,0 5 3 NNE - 8
11.08.2018 05:00:00 21,2 20,2 4 2 N 1017,3 8
11.08.2018 04:00:00 21,0 20,0 4 2 WNW - 10
11.08.2018 03:00:00 22,0 20,0 4 2 NNW - 10
11.08.2018 02:00:00 22,2 19,6 8 4 NNW 1018,1 10
11.08.2018 01:00:00 22,0 19,0 4 2 NW - 10

tt = temperature
td = dewpoint
ff = wind speed
dd = wind direction
ppp = reduced air pressure
vv = visibility

Next stations